Location: Caixon
(43.4106°N, 0.0273°E)
Time: 16:02:38
(UTC+00:00)

METEOR-M - Pass Details

Date: 16 October 2021
Orbit: 815 x 820 km, 98.5° (Epoch: 28 November)

Event Time Altitude Azimuth Distance (km) Brightness Sun altitude
Rises 04:02:33 0° 15° (NNE) 3,358 7.7 -24.7°
Reaches altitude 10° 04:04:56 10° 18° (NNE) 2,421 6.9 -24.3°
Maximum altitude 04:10:16 68° 102° (ESE) 877 4.4 -23.4°
Drops below altitude 10° 04:15:34 10° 186° (S) 2,401 6.4 -22.4°
Sets 04:17:55 0° 188° (S) 3,328 7.1 -22.0°
